sat.trackr.live / text

‹ back to catalog

UNKNOWN

NORAD 82311

UNKNOWN UNKNOWN UNKNOWN

§ Identity

Operator
Country
Launch date
Launch site
Launch vehicle
Mass (kg)
RCS (m²)

External: N2YO · Heavens-Above

§ Orbital elements

Epoch: 2026-05-23T21:00:28.793664Z

Period
106.29 min
Inclination
99.4155°
Eccentricity
0.0107323
Mean motion
13.54755864 rev/d
Perigee alt
975.0 km
Apogee alt
1,134.6 km
Semi-major
7,432.9 km
B*
9.5450e-4
RAAN
195.2440°
Arg perigee
257.1892°
Mean anomaly
101.7237°
Rev number
57,227

§ Raw data

UNKNOWN1 82311U          26143.87533326  .00000637  00000+0  95450-3 0  99992 82311  99.4155 195.2440 0107323 257.1892 101.7237 13.54755864572277

JSON: /api/v1/satellites/82311 · /tle

For live sub-satellite position, see the globe view (requires WebGL).

§ Visibility from observer

Set your observer location to see the next 7 days of passes ≥ 10°. The values pass through the URL so the page stays shareable.

No JS? Fill the form by hand. The geolocation button needs JavaScript.